GW0118 Weather Reports


time (UTC)temp
C
wind
direction
speed
KPH
gust
KPH
rain 1hr
cm
rain 24hr
cm
rain mn
cm
humidity
%
barometer
mb
20260505204600 7 319 3.2 9.7 0.00 0.18 0.18 74 1014.1
20260505203121 8 352 8.0 14.5 0.00 0.18 0.18 72 1013.9
20260505201605 8 333 12.9 20.9 0.00 0.18 0.18 69 1013.6
20260505194600 10 336 4.8 12.9 0.00 0.18 0.18 65 1013.3
20260505193109 10 293 8.0 16.1 0.00 0.18 0.18 63 1013.0
20260505191612 10 354 4.8 19.3 0.00 0.18 0.18 63 1012.9
20260505190100 10 295 8.0 14.5 0.00 0.18 0.18 63 1012.7
20260505184602 11 349 8.0 14.5 0.00 0.18 0.18 64 1012.6
20260505181559 11 68 1.6 4.8 0.00 0.18 0.18 70 1012.4
20260505180103 10 115 3.2 8.0 0.00 0.18 0.18 72 1012.3
20260505174606 10 56 3.2 9.7 0.00 0.18 0.18 74 1012.3
20260505173101 10 94 3.2 8.0 0.00 0.18 0.18 72 1012.3
20260505171601 10 75 4.8 8.0 0.00 0.15 0.15 70 1012.2
20260505170111 10 41 8.0 17.7 0.00 0.15 0.15 65 1012.1
20260505164559 10 53 11.3 22.5 0.00 0.15 0.15 64 1012.3
20260505163103 10 349 12.9 22.5 0.00 0.15 0.15 65 1012.3
20260505161616 11 336 11.3 25.7 0.00 0.15 0.15 61 1012.3
20260505153108 12 1 4.8 11.3 0.00 0.15 0.15 60 1012.3
20260505150105 12 358 11.3 22.5 0.00 0.15 0.15 63 1012.5
20260505140114 10 49 11.3 19.3 0.13 0.15 0.15 73 1012.9
20260505130111 10 179 17.7 27.4 0.00 0.00 0.00 62 1012.6
20260505124611 10 57 8.0 16.1 0.00 0.00 0.00 72 1012.8
20260505123108 10 290 9.7 20.9 0.00 0.00 0.00 67 1012.9
20260505121631 11 38 9.7 25.7 0.00 0.00 0.00 65 1012.8
20260505120112 11 37 8.0 30.6 0.00 0.00 0.00 66 1012.9
20260505114600 12 197 3.2 19.3 0.00 0.00 0.00 56 1012.9
20260505113112 12 224 0.0 8.0 0.00 0.00 0.00 64 1013.1
20260505111608 11 30 3.2 8.0 0.00 0.00 0.00 67 1013.3
20260505110107 10 0 1.6 3.2 0.00 0.00 0.00 70 1013.4
20260505101601 9 275 6.4 12.9 0.00 0.00 0.00 68 1013.9
20260505094600 10 354 3.2 12.9 0.00 0.00 0.00 66 1013.7
20260505093059 10 339 4.8 8.0 0.00 0.00 0.00 66 1013.6
20260505091600 9 269 3.2 9.7 0.00 0.00 0.00 68 1013.8
20260505090107 9 255 6.4 11.3 0.00 0.00 0.00 70 1013.8
20260505084559 9 337 4.8 11.3 0.00 0.00 0.00 69 1013.9
20260505083105 8 316 3.2 14.5 0.00 0.00 0.00 73 1013.8
20260505081603 8 0 3.2 9.7 0.00 0.00 0.00 80 1013.8
20260505080059 7 54 3.2 8.0 0.00 0.00 0.00 82 1013.9
20260505074600 7 59 4.8 9.7 0.00 0.00 0.00 82 1013.8
20260505073100 7 60 1.6 8.0 0.00 0.00 0.00 82 1013.8
20260505071559 7 56 3.2 8.0 0.00 0.00 0.00 83 1013.5
20260505064600 7 46 1.6 8.0 0.00 0.00 0.00 84 1013.4
20260505063059 7 39 1.6 4.8 0.00 0.00 0.00 84 1013.4
20260505061610 7 110 1.6 4.8 0.00 0.00 0.00 84 1013.4
20260505060059 7 0 0.0 0.0 0.00 0.00 0.00 81 1013.2
20260505054601 7 0 0.0 1.6 0.00 0.00 0.00 80 1013.1
20260505053108 7 0 0.0 1.6 0.00 0.00 0.00 81 1013.1
20260505051558 7 0 0.0 3.2 0.00 0.00 0.00 79 1013.0
20260505041559 7 0 0.0 1.6 0.00 0.00 0.00 85 1013.0
20260505034559 7 0 0.0 0.0 0.00 0.00 0.00 84 1013.3
20260505033115 7 0 0.0 0.0 0.00 0.00 0.00 82 1013.2
20260505031601 7 153 0.0 0.0 0.00 0.00 0.00 82 1013.2
20260505030059 7 0 0.0 3.2 0.00 0.00 0.00 80 1013.3
20260505024609 7 264 0.0 3.2 0.00 0.00 0.00 81 1013.3
20260505023107 7 290 0.0 4.8 0.00 0.00 0.00 84 1013.4
20260505021559 7 0 0.0 4.8 0.00 0.00 0.00 88 1013.4
20260505020100 7 0 0.0 1.6 0.00 0.00 0.00 89 1013.4
20260505014559 7 0 0.0 0.0 0.00 0.00 0.00 89 1013.5
20260505013059 7 0 0.0 1.6 0.00 0.00 0.00 89 1013.6
20260505011601 6 0 0.0 0.0 0.00 0.00 0.00 88 1013.6
20260505004601 7 162 1.6 3.2 0.00 0.00 0.00 87 1013.9
20260505003102 7 139 1.6 3.2 0.00 0.00 0.00 87 1013.9
20260505001559 7 0 0.0 3.2 0.00 0.00 0.00 88 1014.2
20260504234624 7 86 0.0 3.2 0.00 0.00 0.00 86 1013.9
20260504233100 7 0 0.0 1.6 0.00 0.00 0.00 84 1013.9
20260504231605 7 109 0.0 1.6 0.00 0.00 0.00 83 1014.1
20260504230101 7 0 0.0 1.6 0.00 0.00 0.00 82 1013.9
20260504224609 7 0 0.0 4.8 0.00 0.00 0.00 82 1014.1
20260504223100 8 123 0.0 1.6 0.00 0.00 0.00 80 1014.0
20260504221605 8 127 0.0 4.8 0.00 0.00 0.00 79 1014.1
20260504220100 9 0 0.0 3.2 0.00 0.00 0.00 75 1014.3
20260504214602 9 21 1.6 3.2 0.00 0.00 0.00 75 1014.2
20260504213105 10 0 0.0 4.8 0.00 0.00 0.00 76 1014.3
20260504211605 10 355 1.6 11.3 0.00 0.00 0.00 76 1014.5
20260504210105 10 344 1.6 6.4 0.00 0.00 0.00 76 1014.6